�������l�o���
Date,Time,MP-1(��Sv/h),MP-2(��Sv/h),MP-3(��Sv/h),MP-4(��Sv/h),MP-5(��Sv/h),MP-6(��Sv/h),MP-7(��Sv/h),MP-8(��Sv/h),����,����(m/s),���J
2018/10/09,00:00,0.798,1.205,0.843,1.498,1.079,0.467,0.813,0.768,��,3.1,��
2018/10/09,00:10,0.798,1.208,0.844,1.501,1.078,0.467,0.815,0.768,��,3.3,��
2018/10/09,00:20,0.797,1.207,0.845,1.499,1.079,0.467,0.814,0.769,��,3.0,��
2018/10/09,00:30,0.794,1.204,0.845,1.497,1.080,0.467,0.814,0.768,��,3.0,��
2018/10/09,00:40,0.797,1.204,0.844,1.502,1.078,0.466,0.815,0.769,��,3.2,��
2018/10/09,00:50,0.798,1.208,0.841,1.500,1.081,0.467,0.814,0.768,��쐼,2.8,��
2018/10/09,01:00,0.798,1.204,0.844,1.500,1.080,0.469,0.815,0.767,��,2.9,��
2018/10/09,01:10,0.797,1.204,0.845,1.500,1.079,0.469,0.815,0.769,��,3.1,��
2018/10/09,01:20,0.794,1.206,0.844,1.498,1.080,0.467,0.814,0.770,��,3.1,��
2018/10/09,01:30,0.796,1.207,0.842,1.499,1.079,0.467,0.815,0.768,��,3.8,��
2018/10/09,01:40,0.797,1.202,0.844,1.502,1.079,0.467,0.813,0.767,��,3.5,��
2018/10/09,01:50,0.798,1.207,0.843,1.499,1.079,0.467,0.814,0.768,��,3.1,��
2018/10/09,02:00,0.795,1.204,0.843,1.501,1.078,0.468,0.815,0.769,��쐼,3.1,��
2018/10/09,02:10,0.797,1.207,0.844,1.498,1.079,0.468,0.814,0.769,���쐼,2.6,��
2018/10/09,02:20,0.795,1.204,0.844,1.499,1.079,0.465,0.814,0.767,���쐼,2.0,��
2018/10/09,02:30,0.797,1.205,0.844,1.498,1.079,0.467,0.814,0.769,�쐼,2.5,��
2018/10/09,02:40,0.796,1.205,0.843,1.500,1.078,0.468,0.814,0.768,�쐼,2.3,��
2018/10/09,02:50,0.797,1.204,0.844,1.502,1.078,0.466,0.814,0.770,�쐼,2.6,��
2018/10/09,03:00,0.797,1.203,0.845,1.498,1.080,0.467,0.815,0.768,��쐼,3.1,��
2018/10/09,03:10,0.796,1.204,0.843,1.498,1.079,0.464,0.813,0.769,��쐼,3.1,��
2018/10/09,03:20,0.796,1.203,0.846,1.498,1.079,0.466,0.814,0.767,��쐼,3.1,��
2018/10/09,03:30,0.795,1.206,0.845,1.499,1.077,0.466,0.813,0.768,��쐼,2.9,��
2018/10/09,03:40,0.795,1.206,0.844,1.496,1.078,0.467,0.813,0.767,��쐼,3.1,��
2018/10/09,03:50,0.796,1.202,0.843,1.499,1.080,0.464,0.814,0.769,��쐼,3.6,��
2018/10/09,04:00,0.796,1.202,0.844,1.498,1.078,0.467,0.813,0.768,��,3.7,��
2018/10/09,04:10,0.795,1.206,0.843,1.501,1.077,0.465,0.814,0.769,��쐼,4.2,��
2018/10/09,04:20,0.796,1.203,0.845,1.499,1.079,0.467,0.813,0.768,��쐼,4.8,��
2018/10/09,04:30,0.795,1.204,0.845,1.499,1.077,0.465,0.813,0.769,��쐼,4.5,��
2018/10/09,04:40,0.796,1.203,0.843,1.500,1.078,0.467,0.816,0.769,��,5.2,��
2018/10/09,04:50,0.795,1.203,0.843,1.500,1.077,0.467,0.815,0.768,��,4.8,��
2018/10/09,05:00,0.795,1.203,0.843,1.499,1.079,0.466,0.815,0.769,��,4.3,��
2018/10/09,05:10,0.794,1.204,0.843,1.501,1.075,0.465,0.813,0.768,��,4.6,��
2018/10/09,05:20,0.795,1.201,0.843,1.500,1.077,0.466,0.814,0.768,��,4.6,��
2018/10/09,05:30,0.795,1.204,0.842,1.499,1.078,0.467,0.813,0.768,��쐼,5.0,��
2018/10/09,05:40,0.795,1.201,0.843,1.497,1.079,0.465,0.813,0.768,��쐼,5.2,��
2018/10/09,05:50,0.794,1.203,0.844,1.499,1.076,0.465,0.814,0.768,��쐼,4.7,��
2018/10/09,06:00,0.795,1.204,0.845,1.500,1.074,0.466,0.812,0.768,��쐼,4.9,��
2018/10/09,06:10,0.795,1.201,0.843,1.497,1.076,0.466,0.815,0.771,��,5.1,��
2018/10/09,06:20,0.795,1.201,0.844,1.500,1.075,0.466,0.814,0.768,��쐼,4.1,��
2018/10/09,06:30,0.794,1.202,0.842,1.499,1.076,0.465,0.814,0.767,��쐼,3.1,��
2018/10/09,06:40,0.796,1.202,0.843,1.498,1.079,0.467,0.815,0.767,��쐼,2.9,��
2018/10/09,06:50,0.796,1.204,0.844,1.498,1.077,0.465,0.814,0.768,��쐼,2.9,��
2018/10/09,07:00,0.795,1.200,0.842,1.500,1.078,0.466,0.817,0.768,��쐼,2.3,��
2018/10/09,07:10,0.796,1.202,0.842,1.498,1.078,0.465,0.816,0.769,�쐼,2.2,��
2018/10/09,07:20,0.796,1.203,0.845,1.500,1.076,0.466,0.817,0.768,��쐼,2.3,��
2018/10/09,07:30,0.797,1.202,0.845,1.501,1.078,0.467,0.815,0.768,��쐼,2.0,��
2018/10/09,07:40,0.795,1.205,0.844,1.499,1.079,0.466,0.814,0.770,��쐼,1.7,��
2018/10/09,07:50,0.797,1.203,0.843,1.498,1.076,0.467,0.815,0.771,��,2.3,��
2018/10/09,08:00,0.797,1.206,0.843,1.499,1.077,0.466,0.815,0.769,��,2.6,��
2018/10/09,08:10,0.798,1.200,0.845,1.503,1.079,0.466,0.815,0.771,��,2.5,��
2018/10/09,08:20,0.799,1.199,0.845,1.501,1.078,0.466,0.813,0.769,��,2.2,��
2018/10/09,08:30,0.798,1.201,0.845,1.498,1.078,0.465,0.815,0.770,��,2.2,��
2018/10/09,08:40,0.797,1.200,0.845,1.499,1.076,0.464,0.813,0.770,��쓌,2.6,��
2018/10/09,08:50,0.795,1.202,0.844,1.499,1.079,0.464,0.813,0.768,��,3.3,��
2018/10/09,09:00,0.798,1.198,0.842,1.498,1.078,0.464,0.814,0.768,��쓌,3.1,��
2018/10/09,09:10,0.794,1.198,0.845,1.499,1.077,0.465,0.811,0.767,��쓌,3.6,��
2018/10/09,09:20,0.795,1.199,0.845,1.500,1.080,0.462,0.813,0.765,��쓌,4.1,��
2018/10/09,09:30,0.793,1.199,0.841,1.499,1.079,0.463,0.815,0.765,��쓌,2.6,��
2018/10/09,09:40,0.793,1.197,0.844,1.500,1.078,0.464,0.814,0.766,��,3.6,��
2018/10/09,09:50,0.794,1.195,0.843,1.500,1.079,0.464,0.815,0.764,��쓌,3.5,��
2018/10/09,10:00,0.794,1.197,0.840,1.501,1.077,0.464,0.814,0.765,��쓌,3.2,��
2018/10/09,10:10,0.794,1.197,0.842,1.499,1.077,0.464,0.811,0.768,��쓌,2.2,��
2018/10/09,10:20,0.795,1.198,0.842,1.497,1.078,0.465,0.813,0.766,��쓌,3.0,��
2018/10/09,10:30,0.794,1.197,0.844,1.499,1.077,0.465,0.814,0.766,��쓌,3.0,��
2018/10/09,10:40,0.795,1.197,0.843,1.499,1.079,0.465,0.813,0.767,��쓌,3.0,��
2018/10/09,10:50,0.794,1.203,0.840,1.500,1.077,0.465,0.814,0.767,��쓌,3.2,��
2018/10/09,11:00,0.795,1.201,0.844,1.498,1.080,0.464,0.815,0.766,��쓌,3.3,��
2018/10/09,11:10,0.795,1.202,0.844,1.498,1.081,0.464,0.816,0.767,�쓌,3.0,��
2018/10/09,11:20,0.795,1.203,0.842,1.498,1.080,0.464,0.815,0.769,�쓌,2.3,��
2018/10/09,11:30,0.795,1.201,0.843,1.502,1.080,0.464,0.815,0.766,��쓌,3.0,��
2018/10/09,11:40,0.796,1.203,0.841,1.497,1.082,0.465,0.814,0.768,��쓌,4.4,��
2018/10/09,11:50,0.795,1.202,0.845,1.502,1.081,0.463,0.815,0.767,��쓌,5.4,��
2018/10/09,12:00,0.795,1.202,0.845,1.501,1.079,0.465,0.814,0.767,��쓌,4.5,��
2018/10/09,12:10,0.798,1.205,0.844,1.497,1.079,0.465,0.815,0.767,��쓌,5.4,��
2018/10/09,12:20,0.798,1.203,0.847,1.501,1.081,0.466,0.814,0.767,��쓌,5.5,��
2018/10/09,12:30,0.800,1.203,0.845,1.503,1.083,0.465,0.816,0.767,��쓌,6.2,��
2018/10/09,12:40,0.799,1.204,0.846,1.499,1.083,0.465,0.816,0.767,��쓌,6.1,��
2018/10/09,12:50,0.798,1.202,0.844,1.501,1.084,0.464,0.817,0.766,�쓌,5.5,��
2018/10/09,13:00,0.797,1.204,0.845,1.503,1.084,0.465,0.816,0.768,��쓌,6.6,��
2018/10/09,13:10,0.798,1.205,0.846,1.501,1.084,0.466,0.815,0.767,�쓌,6.2,��
2018/10/09,13:20,0.798,1.201,0.848,1.503,1.083,0.467,0.814,0.769,��쓌,5.0,��
2018/10/09,13:30,0.800,1.204,0.847,1.501,1.085,0.465,0.815,0.768,��쓌,5.5,��
2018/10/09,13:40,0.799,1.208,0.844,1.505,1.083,0.465,0.817,0.769,��쓌,6.3,��
2018/10/09,13:50,0.801,1.206,0.845,1.504,1.081,0.466,0.816,0.770,��쓌,6.4,��
2018/10/09,14:00,0.796,1.209,0.846,1.502,1.085,0.464,0.818,0.767,��쓌,5.1,��
2018/10/09,14:10,0.798,1.208,0.845,1.501,1.082,0.468,0.817,0.766,��쓌,6.1,��
2018/10/09,14:20,0.797,1.205,0.846,1.504,1.084,0.466,0.816,0.767,��쓌,5.6,��
2018/10/09,14:30,0.798,1.206,0.845,1.504,1.082,0.467,0.815,0.768,��쓌,6.3,��
2018/10/09,14:40,0.798,1.206,0.846,1.502,1.083,0.465,0.814,0.770,��쓌,6.1,��
2018/10/09,14:50,0.799,1.209,0.847,1.504,1.085,0.465,0.815,0.769,��쓌,6.5,��
2018/10/09,15:00,0.799,1.207,0.846,1.505,1.084,0.467,0.816,0.767,��쓌,5.9,��
2018/10/09,15:10,0.800,1.207,0.845,1.502,1.083,0.466,0.816,0.769,��쓌,6.1,��
2018/10/09,15:20,0.799,1.210,0.846,1.503,1.084,0.468,0.815,0.767,��쓌,5.7,��
2018/10/09,15:30,0.799,1.211,0.847,1.505,1.084,0.467,0.816,0.770,��쓌,5.4,��
2018/10/09,15:40,0.798,1.208,0.845,1.502,1.082,0.468,0.814,0.768,��쓌,5.0,��
2018/10/09,15:50,0.798,1.210,0.845,1.502,1.084,0.468,0.815,0.768,��쓌,5.2,��
2018/10/09,16:00,0.797,1.211,0.846,1.503,1.084,0.469,0.814,0.767,��쓌,4.8,��
2018/10/09,16:10,0.798,1.206,0.845,1.504,1.085,0.469,0.815,0.767,��쓌,5.0,��
2018/10/09,16:20,0.798,1.209,0.846,1.504,1.084,0.469,0.815,0.766,��쓌,5.8,��
2018/10/09,16:30,0.801,1.208,0.845,1.503,1.083,0.467,0.814,0.765,��,4.5,��
2018/10/09,16:40,0.796,1.211,0.845,1.505,1.083,0.470,0.815,0.766,��,3.4,��
2018/10/09,16:50,0.799,1.213,0.846,1.503,1.083,0.468,0.815,0.768,��쓌,2.9,��
2018/10/09,17:00,0.799,1.212,0.850,1.503,1.086,0.469,0.816,0.770,��쓌,3.5,��
2018/10/09,17:10,0.799,1.213,0.848,1.505,1.088,0.470,0.815,0.770,��쓌,4.0,��
2018/10/09,17:20,0.799,1.212,0.849,1.506,1.086,0.470,0.816,0.769,��쓌,3.7,��
2018/10/09,17:30,0.800,1.213,0.853,1.504,1.084,0.471,0.816,0.769,��쓌,4.0,��
2018/10/09,17:40,0.799,1.217,0.849,1.504,1.084,0.468,0.815,0.770,��쓌,3.1,��
2018/10/09,17:50,0.800,1.215,0.849,1.506,1.084,0.469,0.817,0.770,��,3.1,��
2018/10/09,18:00,0.800,1.214,0.849,1.504,1.084,0.469,0.818,0.770,��,4.0,��
2018/10/09,18:10,0.802,1.214,0.849,1.505,1.086,0.469,0.815,0.770,��,3.3,��
2018/10/09,18:20,0.801,1.215,0.848,1.504,1.086,0.469,0.817,0.769,��쐼,2.5,��
2018/10/09,18:30,0.801,1.216,0.848,1.505,1.086,0.470,0.815,0.771,��,1.7,��
2018/10/09,18:40,0.799,1.212,0.850,1.505,1.087,0.468,0.816,0.770,��쓌,3.2,��
2018/10/09,18:50,0.801,1.213,0.849,1.505,1.085,0.469,0.818,0.768,��,2.9,��
2018/10/09,19:00,0.802,1.214,0.848,1.504,1.084,0.469,0.816,0.770,��,2.0,��
2018/10/09,19:10,0.801,1.214,0.846,1.502,1.085,0.469,0.814,0.769,���쐼,0.9,��
2018/10/09,19:20,0.801,1.211,0.849,1.503,1.086,0.468,0.816,0.770,�쐼,0.6,��
2018/10/09,19:30,0.802,1.212,0.847,1.504,1.086,0.469,0.816,0.770,��쐼,3.2,��
2018/10/09,19:40,0.800,1.212,0.848,1.506,1.084,0.468,0.816,0.771,��쐼,2.9,��
2018/10/09,19:50,0.801,1.213,0.849,1.504,1.086,0.469,0.816,0.770,��쐼,1.7,��
2018/10/09,20:00,0.800,1.212,0.846,1.504,1.085,0.469,0.815,0.768,��쐼,1.2,��
2018/10/09,20:10,0.800,1.209,0.846,1.503,1.085,0.468,0.817,0.769,��,1.4,��
2018/10/09,20:20,0.802,1.212,0.847,1.503,1.087,0.468,0.816,0.768,��쐼,2.3,��
2018/10/09,20:30,0.800,1.209,0.848,1.502,1.086,0.467,0.816,0.770,��쐼,3.0,��
2018/10/09,20:40,0.801,1.211,0.848,1.503,1.084,0.469,0.816,0.769,��쐼,2.6,��
2018/10/09,20:50,0.799,1.210,0.849,1.506,1.085,0.469,0.817,0.769,��쐼,3.2,��
2018/10/09,21:00,0.801,1.210,0.847,1.506,1.083,0.467,0.817,0.770,��쐼,3.1,��
2018/10/09,21:10,0.799,1.211,0.848,1.503,1.084,0.468,0.815,0.770,��쐼,3.3,��
2018/10/09,21:20,0.802,1.210,0.847,1.506,1.084,0.469,0.815,0.770,��쐼,3.0,��
2018/10/09,21:30,0.800,1.212,0.845,1.505,1.088,0.468,0.815,0.769,��쐼,2.6,��
2018/10/09,21:40,0.801,1.209,0.848,1.506,1.087,0.466,0.817,0.771,��,2.3,��
2018/10/09,21:50,0.800,1.214,0.848,1.505,1.085,0.468,0.815,0.770,��,2.3,��
2018/10/09,22:00,0.798,1.208,0.849,1.503,1.084,0.468,0.817,0.770,��쓌,2.5,��
2018/10/09,22:10,0.801,1.210,0.848,1.504,1.086,0.469,0.816,0.770,��,0.8,��
2018/10/09,22:20,0.798,1.210,0.848,1.507,1.085,0.468,0.814,0.771,��쓌,0.9,��
2018/10/09,22:30,0.802,1.209,0.848,1.506,1.086,0.468,0.815,0.770,��,0.8,��
2018/10/09,22:40,0.801,1.210,0.847,1.505,1.084,0.470,0.816,0.770,-,CALM,��
2018/10/09,22:50,0.800,1.209,0.849,1.507,1.086,0.468,0.814,0.770,-,CALM,��
2018/10/09,23:00,0.799,1.209,0.847,1.507,1.084,0.467,0.814,0.768,���쐼,0.6,��
2018/10/09,23:10,0.800,1.209,0.847,1.506,1.085,0.467,0.815,0.771,��,0.8,��
2018/10/09,23:20,0.800,1.211,0.847,1.503,1.083,0.468,0.815,0.771,-,CALM,��
2018/10/09,23:30,0.801,1.207,0.848,1.505,1.086,0.468,0.815,0.769,��,0.8,��
2018/10/09,23:40,0.799,1.210,0.848,1.503,1.084,0.468,0.816,0.770,-,CALM,��
2018/10/09,23:50,0.798,1.207,0.848,1.503,1.084,0.466,0.817,0.771,���k��,0.8,��
